Theta_e
294 294 295 295 296 296 297 298 298 298 298 298 298 297 298 299 299 299 299 300 300 299 300 301 302 303 303 303 305 306 309 309 307 309 311 310 311 310 311 307 307 309 309 309 308 311 314 308 308 313 313 310 311 309
294 294 294 296 296 298 297 296 298 298 298 297 296 296 298 297 298 299 300 300 300 301 300 301 301 301 302 303 304 303 302 306 306 308 308 310 309 306 311 311 303 310 310 309 311 312 310 309 311 311 312 312 311 312
294 293 294 295 295 296 296 297 297 297 298 297 297 296 297 298 299 299 300 300 301 301 300 301 301 301 301 302 304 304 304 303 306 308 307 309 309 305 309 310 307 305 303 309 309 309 308 311 312 313 313 313 313 313
294 293 294 295 295 296 296 296 296 297 297 297 297 296 297 298 298 299 299 300 300 299 300 300 301 302 302 302 303 304 304 305 305 307 308 309 309 306 308 308 309 306 304 305 306 306 308 308 312 314 313 313 313 313
293 293 294 295 295 295 295 296 296 297 296 297 296 296 297 298 299 299 299 299 299 300 300 301 301 302 302 303 304 305 305 305 305 305 307 307 306 305 302 303 304 302 305 310 312 308 311 313 314 314 313 314 314 314
293 294 294 294 295 295 295 295 295 296 296 296 296 297 297 298 298 299 299 299 299 299 299 302 301 302 302 303 303 304 306 306 306 305 306 308 308 307 306 306 304 307 308 311 308 314 315 315 315 315 314 314 314 314
293 294 294 294 294 294 294 294 295 295 295 296 296 297 298 298 298 298 299 300 300 299 300 302 301 302 303 305 304 304 304 306 306 306 307 306 306 308 305 305 306 306 310 311 312 313 311 313 313 315 314 315 314 314
293 293 294 294 295 295 294 295 295 294 295 295 296 297 297 298 298 298 298 299 300 300 300 299 298 301 304 305 305 305 306 306 307 306 307 307 306 305 308 305 309 309 309 308 310 312 313 314 313 314 314 313 313 314
293 294 294 294 294 294 295 295 294 295 295 296 296 297 297 297 298 298 298 298 298 299 299 300 301 300 304 306 306 307 307 307 306 306 307 306 307 309 308 305 308 310 309 310 310 309 311 312 312 313 313 311 314 314
293 293 294 294 294 294 293 294 294 295 295 295 296 297 297 298 298 298 299 298 299 299 298 299 300 298 303 305 303 305 304 307 306 306 308 306 308 308 308 309 310 310 310 311 308 307 308 311 312 313 314 314 314 315
292 294 294 294 293 293 294 294 294 295 295 295 297 297 298 298 298 298 299 298 298 298 297 298 300 298 303 302 305 305 305 304 308 308 309 309 309 309 308 309 309 310 311 312 311 312 312 311 312 313 313 314 314 314
293 294 294 293 293 294 294 294 295 295 294 296 296 295 297 298 298 298 298 296 298 295 293 298 300 301 303 305 303 304 305 305 307 305 308 308 305 309 309 308 309 308 308 310 310 311 312 311 311 312 313 313 313 313
293 294 293 293 293 293 294 294 294 294 295 295 296 296 296 297 298 296 289 297 294 297 299 301 303 304 304 303 303 303 305 304 303 307 307 306 305 307 308 308 308 310 309 309 309 309 310 311 311 311 312 312 313 313
293 293 293 293 293 293 293 293 294 294 294 295 294 292 298 293 290 288 290 295 299 300 300 301 303 303 303 302 303 306 304 303 306 307 306 303 305 304 305 308 308 308 309 310 310 310 310 310 310 310 311 311 311 312
293 293 293 294 294 293 293 293 294 294 294 295 295 297 292 294 295 297 298 298 299 300 300 302 303 303 304 304 303 305 306 306 303 307 303 302 304 304 305 306 307 308 308 309 309 309 309 309 309 309 310 310 310 311
293 293 294 294 293 293 293 294 294 294 294 295 295 295 296 295 296 296 298 298 299 300 300 302 303 305 305 303 305 306 305 305 303 301 304 304 305 305 305 305 307 307 308 309 309 309 310 310 310 310 311 310 310 310
293 294 293 293 293 294 294 294 293 294 295 292 294 296 296 296 295 296 297 300 301 300 303 302 303 305 304 304 304 303 304 303 303 303 303 303 303 304 304 305 305 306 307 308 308 308 308 309 309 309 309 309 309 309
293 293 293 294 294 293 294 294 294 294 292 293 295 295 296 296 296 297 298 299 300 300 300 304 301 303 302 302 304 300 299 302 303 304 304 303 305 304 303 304 306 307 308 308 307 308 307 308 308 309 309 308 308 308
294 294 294 294 294 294 294 294 294 293 293 294 294 295 295 296 297 298 298 298 299 300 299 300 303 300 302 301 305 303 302 301 300 301 304 303 303 304 303 304 305 305 306 307 307 308 308 308 308 308 308 308 307 307
293 293 293 294 294 294 294 293 294 295 293 294 295 296 296 298 298 299 299 299 299 300 299 300 299 300 302 303 303 303 299 299 299 300 303 304 304 304 304 304 305 305 306 306 306 307 307 306 305 305 306 306 306 305
295 296 297 297 295 295 294 293 294 295 296 294 296 296 297 298 298 299 299 299 298 294 297 297 298 301 301 300 299 299 298 298 297 298 300 303 304 304 305 303 305 305 305 304 306 306 306 306 306 305 305 306 306 306
295 296 296 296 296 295 295 294 295 295 296 296 296 297 296 297 298 299 299 299 297 299 299 298 298 298 298 298 298 298 298 298 298 299 303 303 303 304 305 303 304 305 305 304 304 305 305 305 306 305 305 305 305 305
296 296 297 297 295 295 295 296 296 296 293 293 296 296 290 291 296 297 297 297 298 299 299 298 298 298 298 298 298 297 298 298 298 300 303 303 303 303 304 304 304 304 305 305 304 304 305 305 306 306 306 305 304 304
296 297 297 295 294 294 295 293 295 294 295 296 295 290 290 290 296 297 297 295 298 298 298 298 298 298 298 297 297 297 298 298 298 299 302 303 304 303 304 304 304 304 305 305 304 303 304 304 304 305 304 305 304 304
296 294 294 288 293 294 295 295 295 295 292 291 287 288 291 295 295 295 296 295 297 298 297 297 298 298 298 298 297 297 298 298 298 298 301 303 304 303 302 304 303 303 304 305 304 304 303 303 304 304 304 304 304 304
294 292 291 289 291 292 295 294 293 295 295 295 295 292 295 293 291 293 294 296 297 297 297 298 299 299 298 298 298 297 298 298 297 298 300 303 304 304 303 303 304 304 304 305 304 304 304 303 304 304 304 304 304 304
288 289 294 293 293 293 292 293 295 294 295 292 293 296 296 292 292 294 296 297 297 298 299 299 299 299 299 299 300 300 299 299 298 297 299 301 303 304 304 303 304 305 304 305 304 303 304 304 303 304 304 304 304 304
293 295 295 293 294 294 291 294 294 294 293 293 294 296 293 293 294 296 297 297 299 299 299 299 298 298 298 299 299 301 301 300 299 298 299 300 302 304 304 303 303 305 305 305 304 303 303 303 303 303 303 304 303 303
294 294 295 291 294 293 291 293 293 294 295 294 294 294 294 296 296 297 298 299 299 299 299 299 298 298 298 298 299 300 302 301 299 298 299 299 302 304 304 303 303 304 308 305 304 303 303 303 303 303 303 303 303 303
293 294 293 293 292 291 293 295 295 296 296 296 296 296 296 297 297 298 298 298 298 298 298 298 298 298 298 298 298 300 301 301 299 299 299 299 300 304 304 303 303 303 304 305 304 303 302 302 302 302 303 303 303 303
293 293 293 293 290 293 294 294 295 295 294 295 296 295 296 296 296 296 297 297 297 297 297 297 298 298 298 299 299 300 301 301 299 299 300 300 301 304 305 304 303 303 303 303 303 304 303 303 302 302 302 303 303 304
293 293 294 294 289 294 294 294 294 294 294 293 294 294 294 295 294 297 297 297 297 297 297 298 298 299 299 299 299 299 299 301 301 300 300 300 301 304 304 304 303 303 303 302 303 303 303 303 303 303 302 303 303 303
294 294 294 294 293 290 293 293 291 288 290 290 292 293 294 294 294 297 297 297 297 297 297 297 297 298 298 299 299 299 299 301 302 302 301 301 302 304 304 303 304 303 302 302 302 303 303 303 303 303 303 303 303 303
Wind_Speed
33 34 35 35 32 32 20 14 14 12 13 14 16 17 19 22 25 26 32 30 32 12 18 20 25 22 18 11 3 4 9 8 5 6 7 5 6 16 9 5 7 9 7 4 2 4 5 11 8 9 7 2 10 21
34 34 33 34 29 29 23 15 13 12 14 17 17 18 19 22 24 22 29 30 32 25 13 11 24 32 33 33 18 18 6 7 7 3 3 3 4 5 13 9 1 5 7 7 9 6 2 27 3 15 4 6 8 20
34 34 33 32 29 26 22 16 16 15 15 17 19 20 20 22 23 25 26 25 26 22 14 22 26 34 29 34 34 10 11 13 9 11 4 4 5 3 10 14 4 3 2 4 5 6 7 20 25 18 7 6 8 15
34 33 32 31 28 24 21 18 16 14 16 18 20 18 20 21 22 22 21 20 22 5 3 9 8 16 15 21 34 38 31 15 15 10 4 2 2 5 5 3 11 5 10 6 3 2 3 8 29 22 21 10 10 15
33 32 30 29 26 23 21 19 17 15 17 20 19 17 20 20 17 17 17 19 20 15 2 5 14 20 18 20 25 33 29 23 12 3 2 4 4 1 0 1 3 6 7 11 8 12 10 13 38 28 28 24 17 20
31 29 28 28 24 21 19 18 17 16 20 19 17 17 18 16 12 11 5 18 22 23 4 3 7 10 17 17 25 33 34 26 17 9 4 6 6 6 3 5 4 24 18 27 7 26 32 26 17 34 31 31 22 22
27 27 27 25 22 18 16 17 16 19 17 16 15 15 16 12 12 13 6 2 9 27 5 2 4 5 11 13 22 23 28 17 14 4 6 3 9 5 2 4 3 18 31 24 26 27 21 32 21 20 23 33 30 24
24 24 24 23 17 15 16 16 16 15 15 15 13 13 10 9 11 16 20 15 9 19 8 3 4 3 9 7 7 17 12 18 11 7 4 3 5 4 6 5 28 30 20 26 28 28 22 30 31 27 24 31 35 28
21 22 22 19 13 13 14 14 13 13 12 10 13 13 7 8 8 13 10 13 16 9 3 2 1 3 7 5 6 11 14 5 9 5 4 6 5 6 9 9 15 25 26 18 26 30 19 16 25 26 22 25 27 38
21 20 19 12 12 13 11 12 11 9 8 11 12 6 5 6 10 7 9 4 5 8 8 3 4 3 5 2 2 2 2 4 5 5 8 4 4 31 16 26 28 27 26 34 16 21 26 15 18 26 23 22 24 27
17 15 10 11 11 10 9 8 8 6 6 5 3 6 6 6 9 6 4 4 5 3 8 7 21 5 10 3 2 2 2 1 4 4 7 4 6 19 28 24 21 34 37 41 37 35 32 37 33 23 24 21 22 22
15 14 13 11 9 8 7 5 6 6 3 3 7 12 9 6 4 2 3 3 4 5 4 4 6 14 9 7 3 4 2 3 4 4 3 3 4 16 31 41 44 29 23 34 38 39 35 30 32 30 26 24 23 20
13 11 10 10 9 8 8 6 5 3 3 6 3 3 5 5 5 6 6 3 2 4 7 6 4 9 5 5 3 5 5 5 1 3 4 5 5 16 26 40 48 55 43 33 32 30 30 29 25 27 27 26 26 24
12 11 12 11 9 8 8 6 4 2 3 2 2 4 3 2 4 4 4 3 2 4 14 12 6 3 4 4 3 4 4 2 4 5 5 4 11 15 9 24 35 47 59 47 41 37 34 32 29 27 27 25 24 24
13 13 13 13 12 10 9 7 7 4 2 2 2 4 4 4 6 7 8 7 8 6 10 7 5 8 3 4 4 3 3 5 6 3 2 1 14 14 6 8 14 31 36 41 38 32 29 30 31 29 28 28 29 28
13 13 14 14 12 11 10 10 5 5 3 4 6 3 6 2 3 3 9 15 14 15 14 9 4 5 4 3 5 5 3 5 3 3 7 15 18 17 10 8 12 12 20 28 35 43 50 51 49 50 50 47 38 29
14 18 17 17 14 11 12 11 6 5 6 4 4 11 9 8 8 9 9 10 9 6 3 3 6 5 3 3 4 3 4 3 2 9 16 16 14 15 12 8 10 13 15 19 24 27 31 34 32 34 39 44 47 48
21 20 16 16 13 18 20 12 9 6 7 10 4 4 10 12 8 11 12 12 7 5 3 4 5 4 4 4 3 3 3 6 5 9 15 16 16 15 10 9 7 12 15 17 20 21 21 24 25 30 34 36 35 39
23 21 23 23 22 23 10 15 11 5 11 5 11 14 11 11 13 14 19 19 14 13 4 3 2 3 3 2 2 2 0 5 10 15 13 11 14 18 13 9 5 7 11 15 19 18 16 19 24 25 27 30 32 38
31 34 33 33 30 12 8 4 15 5 4 8 9 7 5 6 5 5 8 6 3 1 1 2 3 2 6 3 5 3 3 7 11 15 17 16 17 17 17 13 6 3 2 7 12 14 13 16 19 21 25 28 27 34
17 14 17 31 23 9 6 9 7 7 5 6 4 7 3 4 5 3 3 3 2 2 2 3 2 5 5 6 2 2 4 10 11 12 15 20 19 16 13 12 7 5 2 4 8 10 11 14 16 18 22 25 27 31
26 27 27 14 5 4 4 5 4 9 6 3 5 4 2 1 2 2 2 1 2 3 4 2 4 6 7 7 4 6 8 9 9 10 9 12 16 15 11 10 6 4 2 2 6 10 13 14 15 18 20 23 27 32
17 11 5 4 5 4 4 9 3 6 4 3 4 2 2 1 1 3 2 5 6 9 9 10 11 10 12 13 11 8 7 7 6 6 6 8 12 9 7 5 3 3 1 2 5 10 13 15 16 17 20 25 29 32
11 3 3 4 4 2 4 1 2 3 2 2 2 2 2 2 2 1 2 3 8 11 12 10 10 11 12 12 11 8 7 8 7 8 6 7 11 10 4 3 3 4 2 5 8 11 14 18 20 22 24 29 32 35
4 1 2 2 2 3 3 2 1 1 1 1 3 3 2 2 2 3 4 4 11 12 9 9 9 9 11 13 14 12 10 10 10 10 6 7 10 12 6 2 1 7 4 2 8 12 16 19 21 23 27 30 34 37
3 1 3 3 2 3 5 4 4 5 3 3 2 1 3 1 1 5 3 7 15 12 8 7 7 8 9 11 13 12 8 7 9 10 6 7 8 12 10 3 1 3 7 2 4 11 16 19 22 24 27 29 32 35
3 2 2 1 3 4 3 1 4 2 4 4 3 4 2 1 4 4 5 11 11 10 6 3 0 3 6 7 10 11 11 10 9 9 7 9 9 8 11 8 2 2 3 2 3 9 14 19 22 25 28 29 29 32
1 4 4 6 3 3 3 3 5 6 4 5 5 5 5 5 4 4 4 4 12 9 4 2 5 9 12 11 13 12 13 15 12 13 12 12 12 8 6 5 6 7 2 3 2 8 12 16 21 24 26 28 30 31
1 3 5 2 2 1 3 5 4 5 6 10 5 4 4 6 7 6 3 5 13 13 15 17 19 18 15 12 15 17 17 17 17 18 17 16 17 12 6 4 3 9 12 7 6 7 11 14 19 21 23 25 27 29
3 4 2 2 2 3 3 7 3 3 7 10 7 6 10 17 19 17 19 21 24 29 30 29 27 24 19 17 18 17 17 19 22 23 21 19 21 18 10 4 2 7 13 14 13 14 16 18 20 19 21 25 27 29
3 4 1 2 2 4 4 5 8 10 12 12 16 18 20 18 28 29 27 28 29 30 29 27 25 20 18 20 21 20 19 19 22 24 24 21 18 17 15 10 5 5 11 16 18 19 19 21 21 23 25 29 31 31
4 4 1 2 3 3 9 2 2 3 3 4 4 6 4 4 5 6 6 9 10 14 17 16 18 16 17 19 21 21 20 19 21 24 24 23 21 18 15 12 8 8 10 16 17 18 19 22 24 24 26 29 31 31
3 4 3 3 2 3 3 4 2 3 2 3 4 2 3 4 4 3 4 6 10 8 9 11 13 14 16 17 19 18 17 18 16 16 22 20 21 21 18 14 8 7 10 15 20 22 23 24 26 27 28 28 29 29
Wind_Direction
301 302 302 305 301 293 268 251 259 261 266 272 270 271 270 263 257 250 249 243 228 232 250 232 234 235 243 201 238 292 203 176 179 170 195 176 190 213 210 171 170 160 151 174 121 123 238 154 115 169 216 204 177 178
299 299 300 301 298 293 284 260 258 263 273 269 279 281 276 274 262 253 252 248 241 230 248 242 253 247 244 234 228 235 264 332 171 175 214 216 223 164 198 212 41 185 191 174 181 190 233 184 184 191 186 181 187 182
295 295 294 298 296 291 297 259 257 255 269 281 282 282 281 273 263 254 246 241 236 223 248 246 252 258 261 241 229 220 211 202 250 208 187 225 222 152 188 214 136 241 176 164 125 209 221 200 214 206 212 200 195 184
291 290 289 294 292 285 279 267 265 275 278 277 280 281 283 273 265 250 243 240 239 229 240 260 268 247 258 237 234 231 233 228 215 286 227 232 237 202 218 163 204 174 144 160 268 280 66 236 219 215 213 207 184 176
285 286 286 290 290 280 273 263 261 271 274 274 279 278 278 274 261 246 246 242 239 222 272 279 277 256 258 229 220 222 213 215 224 273 214 219 245 222 219 101 207 189 171 188 208 179 175 222 223 216 214 212 194 181
281 283 282 286 283 274 265 260 260 269 268 273 277 277 276 257 252 246 246 247 228 227 243 253 267 264 230 229 219 219 220 226 218 188 212 227 246 216 216 231 248 196 202 200 184 199 211 225 233 227 215 210 197 190
277 278 280 282 276 263 258 260 265 266 269 275 274 276 261 248 234 213 211 186 208 209 222 249 263 258 229 197 213 209 223 224 207 217 228 215 200 190 258 231 252 210 213 210 203 196 208 220 221 227 223 216 210 201
274 274 278 280 264 251 255 263 266 266 266 273 270 273 262 245 240 244 237 236 267 186 189 223 253 289 196 189 196 191 189 206 215 208 221 185 199 180 236 198 244 260 265 233 214 210 223 229 227 225 226 211 201 193
270 272 277 265 246 253 257 260 260 259 258 273 269 264 236 230 225 246 260 248 250 236 283 189 218 243 189 209 218 179 192 192 196 199 197 198 190 210 223 188 212 241 234 244 227 224 219 218 218 208 209 194 199 207
270 264 272 244 249 253 256 260 263 259 256 271 255 211 209 202 206 187 176 206 215 192 210 208 193 258 171 203 296 128 209 194 196 214 148 200 249 238 203 211 220 232 247 241 222 221 214 203 202 200 200 197 202 204
266 273 228 243 251 253 256 257 250 237 248 266 227 209 199 179 172 188 194 180 199 207 207 216 193 185 207 147 210 271 204 162 218 195 185 213 244 239 230 218 217 226 226 238 242 240 237 223 210 202 201 201 204 206
261 250 232 241 240 240 243 251 238 218 208 247 297 313 175 192 182 205 216 189 213 228 189 200 212 190 172 169 144 196 233 204 270 140 226 239 248 221 211 215 219 220 203 212 228 232 234 231 226 219 211 207 208 208
259 236 224 238 241 240 228 229 269 229 233 270 223 247 185 165 188 196 210 228 204 194 180 186 181 167 154 169 169 187 210 226 91 215 228 210 245 279 220 208 210 214 222 215 204 208 209 215 212 212 213 215 217 215
243 237 234 238 241 234 227 223 197 243 232 237 237 278 231 228 231 195 197 225 240 189 175 187 169 166 168 172 169 210 204 197 224 240 238 229 265 312 293 230 219 216 212 218 209 209 213 219 227 231 223 221 224 219
240 238 236 240 241 234 226 215 210 236 234 258 236 247 228 237 262 254 276 262 243 218 208 209 209 209 153 187 188 189 204 239 213 203 256 223 331 326 289 247 221 225 226 230 232 233 237 240 245 245 235 230 230 227
242 244 242 243 242 236 219 215 227 197 219 235 234 247 231 214 267 264 260 255 261 246 232 211 204 174 210 182 187 189 203 222 244 238 287 326 336 329 326 261 224 210 211 220 229 237 244 247 250 253 251 243 238 228
250 250 250 247 241 221 200 210 213 215 219 225 242 238 256 276 262 265 269 262 282 214 227 162 179 190 125 188 205 190 211 233 260 309 319 333 344 336 328 296 247 224 216 216 220 224 231 234 239 243 242 240 236 234
244 251 246 241 216 225 224 225 186 219 236 232 247 240 230 237 253 271 268 272 280 202 226 189 133 185 190 187 197 206 238 297 336 328 331 334 352 1 343 317 262 237 227 223 228 229 228 223 228 235 238 237 228 216
251 250 246 236 229 219 204 192 180 215 223 231 245 248 254 260 267 276 270 281 274 253 193 92 153 175 160 201 180 202 83 352 331 330 338 356 357 352 357 352 300 255 229 236 223 221 226 223 221 221 218 214 211 207
257 251 246 237 224 180 186 158 180 204 198 221 221 222 221 245 283 259 258 283 287 187 240 177 204 190 161 157 167 133 23 5 348 337 337 359 359 355 2 359 357 328 246 220 208 209 209 205 204 205 205 200 197 195
279 228 197 177 141 142 144 160 169 203 198 199 214 204 243 240 254 230 249 292 329 246 275 211 195 184 154 144 164 296 332 339 323 318 318 337 345 342 348 349 5 2 310 204 190 186 181 187 184 185 183 182 190 191
122 121 128 125 111 100 96 165 157 168 179 217 162 200 211 224 256 246 180 165 257 262 249 232 177 204 257 267 277 284 295 309 307 314 323 338 340 337 350 355 16 18 9 180 178 183 177 168 169 173 174 176 184 185
134 134 112 90 101 81 117 148 146 169 159 202 156 199 285 271 203 156 253 222 234 237 242 259 268 274 278 285 285 286 305 294 281 318 326 349 356 338 338 351 52 45 55 176 170 171 170 163 162 162 168 173 175 174
137 56 48 60 72 117 131 118 136 125 97 127 143 223 242 207 131 204 256 266 253 267 271 269 271 275 282 282 294 315 337 332 314 317 308 335 353 354 351 348 73 93 117 150 164 169 163 161 163 166 168 167 168 166
110 3 106 37 99 110 109 108 89 79 110 231 70 325 286 140 212 223 206 255 245 252 271 284 273 261 265 278 283 290 295 290 287 299 302 307 333 351 349 288 93 104 62 139 169 169 162 161 161 164 169 171 169 165
107 222 123 158 146 130 164 147 186 167 155 169 203 241 201 176 268 240 213 233 228 242 252 255 267 267 262 272 283 286 295 277 262 275 291 294 327 345 337 304 197 87 97 24 186 185 175 170 169 170 171 173 172 168
123 212 150 152 144 140 89 73 142 151 181 181 188 183 148 224 250 250 214 203 220 223 187 172 240 305 317 307 286 281 266 264 240 242 253 261 273 310 324 324 346 217 107 36 234 200 190 182 180 176 174 174 177 176
132 164 172 173 165 173 151 166 181 195 198 186 152 187 189 210 242 239 249 203 181 191 196 265 300 297 289 301 305 277 252 248 231 218 224 236 244 263 313 312 269 247 198 174 215 199 192 195 188 181 179 176 175 177
151 161 132 114 154 199 221 198 207 213 186 171 180 210 230 225 238 254 279 275 224 236 265 282 288 295 285 275 283 282 248 238 228 210 209 231 233 237 268 292 228 212 224 210 180 184 187 189 192 183 179 177 176 177
166 167 112 135 172 239 249 207 227 232 214 218 234 258 261 260 268 275 274 272 269 269 272 278 282 283 280 287 286 267 253 243 233 225 209 219 231 219 231 231 219 192 197 204 192 180 177 180 186 182 181 177 175 177
152 180 242 213 237 247 264 276 274 271 263 257 256 255 264 283 286 285 283 280 275 272 269 268 268 268 266 263 256 257 258 239 232 228 218 224 236 223 229 245 236 216 205 207 203 194 187 183 184 181 180 180 179 181
176 204 239 269 289 303 310 269 260 250 242 236 252 235 268 254 264 273 268 306 286 259 254 253 251 258 259 260 260 257 254 246 236 232 225 220 225 209 226 234 246 233 210 210 213 206 197 194 186 187 188 185 186 185
197 215 230 272 281 327 344 325 290 308 274 270 258 242 228 239 258 283 299 345 344 307 272 265 264 256 251 260 259 253 236 223 221 229 219 220 211 206 220 221 231 233 214 205 207 206 204 201 199 193 191 188 188 189